Change the Weather History Date:

Thursday, September 12, 2013

  Actual Average Record
Temperature  
Mean Temperature 76 °F -  
Max Temperature 84 °F 80 °F 99 °F (1983)
Min Temperature 68 °F 52 °F 36 °F (1943)
Cooling Degree Days 11    
Growing Degree Days 26 (Base 50)    
Moisture  
Dew Point 70 °F    
Average Humidity 85    
Maximum Humidity 94    
Minimum Humidity 70    
Precipitation  
Precipitation 0.00 in - - ()
Sea Level Pressure  
Sea Level Pressure 29.86 in    
Wind  
Wind Speed 2 mph (SW)    
Max Wind Speed 15 mph    
Max Gust Speed 23 mph    
Visibility 6 miles    
Events Rain , Thunderstorm    
Averages and records for this station are not official NWS values.
T = Trace of Precipitation, MM = Missing Value Source: NWS Daily Summary

Daily Weather History Graph

Daily Weather History Graph

Search for Another Location

Airport or City:

Trip Planner

Search our weather history database for the weather conditions in past years. The results will help you decide how hot, cold, wet, or windy it might be!

Date:

Astronomy

Sep. 12, 2013 Rise Set
Actual Time 6:35 AM EDT 7:11 PM EDT
Civil Twilight 6:07 AM EDT 7:38 PM EDT
Nautical Twilight 5:35 AM EDT 8:11 PM EDT
Astronomical Twilight 5:01 AM EDT 8:44 PM EDT
Moon 2:03 PM EDT (9/12) No Moon Set
Length of Visible Light 13h 31m
Length of Day
12h 35m
Waxing Crescent, 50% of the Moon is Illuminated
Sep 12
Waxing Crescent
Sep 12
First Quarter
Sep 19
Full
Sep 26
Last Quarter
Oct 4
New

Hourly Weather History & Observations

Time (EDT) Temp. Heat Index Dew Point Humidity Pressure Visibility Wind Dir Wind Speed Gust Speed Precip Events Conditions
12:15 AM 77.0 °F - 71.6 °F 83% 29.99 in 5.0 mi Calm Calm - N/A   Clear
12:35 AM 75.2 °F - 71.6 °F 89% 29.98 in 4.0 mi Calm Calm - N/A   Clear
12:55 AM 75.2 °F - 71.6 °F 89% 29.98 in 5.0 mi Calm Calm - N/A   Clear
1:15 AM 75.2 °F - 71.6 °F 89% 29.97 in 5.0 mi Calm Calm - N/A   Clear
1:35 AM 75.2 °F - 71.6 °F 89% 29.96 in 5.0 mi Calm Calm - N/A   Mostly Cloudy
1:55 AM 75.2 °F - 71.6 °F 89% 29.96 in 5.0 mi Calm Calm - N/A   Overcast
2:15 AM 75.2 °F - 71.6 °F 89% 29.96 in 7.0 mi Calm Calm - N/A   Overcast
2:35 AM 77.0 °F - 71.6 °F 83% 29.95 in 7.0 mi Calm Calm - N/A   Mostly Cloudy
2:55 AM 77.0 °F - 71.6 °F 83% 29.95 in 7.0 mi Calm Calm - N/A   Mostly Cloudy
3:15 AM 75.2 °F - 71.6 °F 89% 29.95 in 5.0 mi Calm Calm - N/A   Haze
3:35 AM 75.2 °F - 71.6 °F 89% 29.95 in 5.0 mi Calm Calm - N/A   Haze
3:55 AM 75.2 °F - 69.8 °F 83% 29.95 in 7.0 mi Calm Calm - N/A   Clear
4:15 AM 75.2 °F - 69.8 °F 83% 29.94 in 5.0 mi Calm Calm - N/A   Clear
4:35 AM 75.2 °F - 69.8 °F 83% 29.94 in 5.0 mi Calm Calm - N/A   Haze
4:55 AM 75.2 °F - 69.8 °F 83% 29.94 in 5.0 mi Calm Calm - N/A   Haze
5:15 AM 73.4 °F - 69.8 °F 88% 29.94 in 4.0 mi Calm Calm - N/A   Clear
5:35 AM 73.4 °F - 69.8 °F 88% 29.94 in 5.0 mi Calm Calm - N/A   Clear
5:55 AM 73.4 °F - 69.8 °F 88% 29.94 in 5.0 mi Calm Calm - N/A   Clear
6:15 AM 73.4 °F - 69.8 °F 88% 29.93 in 5.0 mi SSE 3.5 mph - N/A   Clear
6:35 AM 73.4 °F - 69.8 °F 88% 29.93 in 5.0 mi Calm Calm - N/A   Clear
7:45 AM 75.2 °F - 69.8 °F 83% 29.93 in 4.0 mi SSW 8.1 mph - N/A   Haze
8:45 AM 77.0 °F - 71.6 °F 83% 29.93 in 4.0 mi SSW 5.8 mph - N/A   Haze
9:45 AM 80.6 °F 84.6 °F 71.6 °F 74% 29.90 in 5.0 mi WSW 6.9 mph - N/A   Haze
10:45 AM 82.4 °F 87.2 °F 71.6 °F 70% 29.88 in 5.0 mi West 5.8 mph - N/A   Haze
11:45 AM 84.2 °F 90.9 °F 73.4 °F 70% 29.87 in 5.0 mi SW 8.1 mph - N/A   Haze
12:05 PM 82.4 °F 89.5 °F 75.2 °F 79% 29.87 in 2.0 mi SSW 11.5 mph 23.0 mph N/A Rain , Thunderstorm Thunderstorms and Rain
12:30 PM 71.6 °F - 66.2 °F 83% 29.88 in 5.0 mi West 5.8 mph 23.0 mph N/A Rain , Thunderstorm Light Thunderstorms and Rain
12:45 PM 71.6 °F - 68.0 °F 88% 29.86 in 5.0 mi SW 6.9 mph - N/A Rain Light Rain
1:45 PM 75.2 °F - 69.8 °F 83% 29.83 in 5.0 mi SSW 3.5 mph - N/A   Overcast
2:45 PM 78.8 °F - 73.4 °F 83% 29.80 in 5.0 mi Calm Calm - N/A   Haze
3:45 PM 84.2 °F 90.9 °F 73.4 °F 70% 29.76 in 5.0 mi South 5.8 mph - N/A   Haze
4:45 PM 84.2 °F 90.9 °F 73.4 °F 70% 29.73 in 6.0 mi WSW 8.1 mph - N/A   Haze
5:45 PM 80.6 °F 86.2 °F 75.2 °F 84% 29.72 in 6.0 mi Calm Calm - N/A   Haze
6:12 PM 78.8 °F - 75.2 °F 89% 29.77 in 1.5 mi SSW 15.0 mph - N/A Rain Heavy Rain
6:22 PM 77.0 °F - 71.6 °F 83% 29.70 in 6.0 mi NNW 3.5 mph 15.0 mph N/A Rain Light Rain
6:45 PM 73.4 °F - 71.6 °F 94% 29.71 in 2.0 mi NNW 11.5 mph - N/A Rain , Thunderstorm Thunderstorms and Rain
7:35 PM 69.8 °F - 66.2 °F 88% 29.73 in 10.0 mi SSW 4.6 mph - N/A Rain , Thunderstorm Thunderstorms and Rain
7:45 PM 69.8 °F - 66.2 °F 88% 29.74 in 10.0 mi South 4.6 mph - N/A Rain , Thunderstorm Light Thunderstorms and Rain
8:46 PM 69.8 °F - 68.0 °F 94% 29.75 in 10.0 mi Calm Calm - N/A   Scattered Clouds
9:45 PM 68.0 °F - 66.2 °F 94% 29.75 in 7.0 mi WNW 4.6 mph - N/A   Scattered Clouds
10:55 PM 69.8 °F - 68.0 °F 94% 29.73 in 7.0 mi Calm Calm - N/A   Clear
11:15 PM 69.8 °F - 68.0 °F 94% 29.72 in 7.0 mi WSW 3.5 mph - N/A   Clear
11:35 PM 69.8 °F - 66.2 °F 88% 29.73 in 7.0 mi WSW 3.5 mph - N/A   Clear
11:55 PM 69.8 °F - 66.2 °F 88% 29.72 in 7.0 mi Calm Calm - N/A   Clear